TimeCDT,TemperatureF,Dew PointF,Humidity,Sea Level PressureIn,VisibilityMPH,Wind Direction,Wind SpeedMPH,Gust SpeedMPH,PrecipitationIn,Events,Conditions,WindDirDegrees,DateUTC
12:56 AM,36.0,23.0,59,30.19,10.0,ENE,8.1,-,N/A,,Overcast,60,2012-11-03 05:56:00
1:56 AM,36.0,23.0,59,30.19,10.0,ENE,6.9,-,N/A,,Overcast,60,2012-11-03 06:56:00
2:56 AM,35.1,23.0,61,30.21,10.0,NE,3.5,-,N/A,,Overcast,40,2012-11-03 07:56:00
3:56 AM,35.1,23.0,61,30.20,10.0,East,4.6,-,N/A,,Overcast,90,2012-11-03 08:56:00
4:56 AM,34.0,24.1,67,30.19,10.0,East,4.6,-,N/A,,Overcast,90,2012-11-03 09:56:00
5:56 AM,34.0,24.1,67,30.21,10.0,ENE,4.6,-,N/A,,Overcast,60,2012-11-03 10:56:00
6:56 AM,33.1,23.0,66,30.22,10.0,East,6.9,-,N/A,,Overcast,100,2012-11-03 11:56:00
7:56 AM,32.0,24.1,73,30.23,10.0,ENE,5.8,-,N/A,,Overcast,70,2012-11-03 12:56:00
8:56 AM,33.1,24.1,70,30.26,10.0,East,4.6,-,N/A,,Overcast,80,2012-11-03 13:56:00
9:56 AM,34.0,24.1,67,30.27,10.0,East,3.5,-,N/A,,Overcast,100,2012-11-03 14:56:00
10:56 AM,36.0,24.1,62,30.26,10.0,SE,6.9,-,N/A,,Overcast,140,2012-11-03 15:56:00
11:56 AM,37.0,25.0,62,30.27,10.0,ESE,3.5,-,N/A,,Overcast,120,2012-11-03 16:56:00
12:56 PM,39.0,25.0,57,30.25,10.0,Variable,3.5,-,N/A,,Overcast,0,2012-11-03 17:56:00
1:56 PM,41.0,26.1,55,30.24,10.0,Calm,Calm,-,N/A,,Overcast,0,2012-11-03 18:56:00
2:56 PM,41.0,25.0,53,30.23,10.0,Calm,Calm,-,N/A,,Overcast,0,2012-11-03 19:56:00
3:56 PM,42.1,26.1,53,30.23,10.0,Calm,Calm,-,N/A,,Overcast,0,2012-11-03 20:56:00
4:56 PM,41.0,26.1,55,30.22,10.0,Calm,Calm,-,N/A,,Overcast,0,2012-11-03 21:56:00
5:56 PM,39.9,26.1,58,30.22,10.0,NE,3.5,-,N/A,,Overcast,50,2012-11-03 22:56:00
6:56 PM,39.0,27.0,62,30.23,10.0,NE,3.5,-,N/A,,Overcast,40,2012-11-03 23:56:00
7:56 PM,37.9,27.0,65,30.24,10.0,ENE,3.5,-,N/A,,Overcast,60,2012-11-04 00:56:00
8:56 PM,37.9,27.0,65,30.24,10.0,Calm,Calm,-,N/A,,Overcast,0,2012-11-04 01:56:00
9:56 PM,37.9,28.0,68,30.25,10.0,Calm,Calm,-,N/A,,Overcast,0,2012-11-04 02:56:00
10:56 PM,37.9,28.0,68,30.25,10.0,Calm,Calm,-,N/A,,Overcast,0,2012-11-04 03:56:00
11:56 PM,37.0,28.0,70,30.24,10.0,NNE,3.5,-,N/A,,Overcast,30,2012-11-04 04:56:00